| time (UTC) | temp F | wind direction | speed knots | gust knots | rain 1hr in | rain 24hr in | rain mn in | humidity % | barometer mb |
| 20260902021600 | 58 | 262 | 0.0 | 0.9 | 0.00 | 0.00 | 0.00 | 92 | 1019.8 |
| 20260902020126 | 58 | 141 | 0.0 | 0.9 | 0.00 | 0.00 | 0.00 | 92 | 1019.7 |
| 20260902014601 | 59 | 33 | 0.0 | 0.9 | 0.00 | 0.00 | 0.00 | 92 | 1019.6 |
| 20260902013056 | 59 | 344 | 0.0 | 0.9 | 0.00 | 0.00 | 0.00 | 92 | 1019.5 |
| 20260902011555 | 59 | 344 | 0.0 | 0.0 | 0.00 | 0.00 | 0.00 | 92 | 1019.4 |
| 20260902010054 | 59 | 3 | 0.0 | 0.9 | 0.00 | 0.00 | 0.00 | 91 | 1019.3 |
| 20260902004552 | 59 | 60 | 0.0 | 0.0 | 0.00 | 0.00 | 0.00 | 90 | 1019.2 |
| 20260902003050 | 61 | 270 | 0.0 | 0.9 | 0.00 | 0.00 | 0.00 | 89 | 1019.0 |
| 20260902001550 | 62 | 252 | 0.0 | 2.6 | 0.00 | 0.00 | 0.00 | 90 | 1019.0 |
| 20260902000049 | 62 | 276 | 0.0 | 1.7 | 0.00 | 0.00 | 0.00 | 90 | 1019.0 |
| 20260901234602 | 62 | 264 | 0.0 | 2.6 | 0.00 | 0.00 | 0.00 | 90 | 1018.9 |
| 20260901233146 | 63 | 276 | 0.0 | 0.9 | 0.00 | 0.00 | 0.00 | 89 | 1018.7 |
| 20260901231545 | 63 | 325 | 0.0 | 0.9 | 0.00 | 0.00 | 0.00 | 88 | 1018.4 |
| 20260901230049 | 64 | 270 | 0.0 | 2.6 | 0.00 | 0.00 | 0.00 | 87 | 1018.3 |
| 20260901224547 | 65 | 255 | 0.9 | 4.3 | 0.00 | 0.00 | 0.00 | 84 | 1018.2 |
| 20260901223049 | 66 | 262 | 1.7 | 6.1 | 0.00 | 0.00 | 0.00 | 82 | 1018.3 |
| 20260901221606 | 67 | 256 | 1.7 | 5.2 | 0.00 | 0.00 | 0.00 | 81 | 1018.2 |
| 20260901220042 | 67 | 243 | 3.5 | 6.1 | 0.00 | 0.00 | 0.00 | 79 | 1018.2 |
| 20260901214539 | 68 | 258 | 2.6 | 7.0 | 0.00 | 0.00 | 0.00 | 78 | 1018.0 |
| 20260901213040 | 69 | 223 | 3.5 | 7.8 | 0.00 | 0.00 | 0.00 | 77 | 1017.9 |
| 20260901211538 | 69 | 252 | 3.5 | 7.0 | 0.00 | 0.00 | 0.00 | 76 | 1017.9 |
| 20260901210038 | 68 | 229 | 3.5 | 8.7 | 0.00 | 0.00 | 0.00 | 79 | 1017.7 |
| 20260901204537 | 68 | 285 | 3.5 | 6.1 | 0.00 | 0.00 | 0.00 | 81 | 1017.6 |
| 20260901203048 | 68 | 222 | 3.5 | 6.1 | 0.00 | 0.00 | 0.00 | 81 | 1017.7 |
| 20260901201545 | 68 | 229 | 2.6 | 7.0 | 0.00 | 0.00 | 0.00 | 82 | 1017.6 |
| 20260901200035 | 68 | 237 | 3.5 | 8.7 | 0.00 | 0.00 | 0.00 | 82 | 1017.6 |
| 20260901194534 | 68 | 247 | 4.3 | 7.0 | 0.00 | 0.00 | 0.00 | 81 | 1017.6 |
| 20260901193034 | 70 | 205 | 2.6 | 8.7 | 0.00 | 0.00 | 0.00 | 78 | 1017.5 |
| 20260901191534 | 70 | 253 | 4.3 | 8.7 | 0.00 | 0.00 | 0.00 | 80 | 1017.4 |
| 20260901190041 | 69 | 236 | 4.3 | 8.7 | 0.00 | 0.00 | 0.00 | 81 | 1017.4 |
| 20260901184535 | 68 | 245 | 4.3 | 7.8 | 0.00 | 0.00 | 0.00 | 80 | 1017.4 |
| 20260901183034 | 68 | 204 | 3.5 | 8.7 | 0.00 | 0.00 | 0.00 | 80 | 1017.2 |
| 20260901181532 | 68 | 250 | 5.2 | 7.8 | 0.00 | 0.00 | 0.00 | 79 | 1017.4 |
| 20260901180031 | 67 | 256 | 4.3 | 10.4 | 0.00 | 0.00 | 0.00 | 81 | 1017.6 |
| 20260901174533 | 68 | 243 | 3.5 | 7.0 | 0.00 | 0.00 | 0.00 | 82 | 1017.6 |
| 20260901173030 | 67 | 193 | 2.6 | 7.0 | 0.00 | 0.00 | 0.00 | 83 | 1017.7 |
| 20260901171530 | 67 | 252 | 3.5 | 7.0 | 0.00 | 0.00 | 0.00 | 83 | 1017.7 |
| 20260901170030 | 67 | 205 | 2.6 | 6.1 | 0.00 | 0.00 | 0.00 | 82 | 1017.8 |
| 20260901164529 | 68 | 264 | 2.6 | 7.8 | 0.00 | 0.00 | 0.00 | 80 | 1017.7 |
| 20260901163028 | 68 | 255 | 3.5 | 11.3 | 0.00 | 0.00 | 0.00 | 81 | 1017.5 |
| 20260901161537 | 68 | 208 | 3.5 | 8.7 | 0.00 | 0.00 | 0.00 | 80 | 1017.7 |
| 20260901160041 | 69 | 182 | 4.3 | 9.6 | 0.00 | 0.00 | 0.00 | 77 | 1017.7 |
| 20260901154527 | 69 | 233 | 3.5 | 10.4 | 0.00 | 0.00 | 0.00 | 78 | 1017.9 |
| 20260901153027 | 70 | 231 | 5.2 | 11.3 | 0.00 | 0.00 | 0.00 | 74 | 1017.9 |
| 20260901151525 | 69 | 236 | 5.2 | 9.6 | 0.00 | 0.00 | 0.00 | 73 | 1018.0 |
| 20260901150029 | 68 | 223 | 3.5 | 7.8 | 0.00 | 0.00 | 0.00 | 74 | 1017.9 |
| 20260901144521 | 69 | 168 | 3.5 | 9.6 | 0.00 | 0.00 | 0.00 | 72 | 1017.8 |
| 20260901143021 | 69 | 181 | 2.6 | 7.0 | 0.00 | 0.00 | 0.00 | 73 | 1017.8 |
| 20260901141519 | 69 | 127 | 2.6 | 6.1 | 0.00 | 0.00 | 0.00 | 73 | 1017.8 |
| 20260901140017 | 70 | 37 | 0.0 | 0.9 | 0.00 | 0.00 | 0.00 | 78 | 1017.8 |
| 20260901134528 | 69 | 141 | 0.0 | 2.6 | 0.00 | 0.00 | 0.00 | 77 | 1017.8 |
| 20260901133013 | 68 | 131 | 0.0 | 2.6 | 0.00 | 0.00 | 0.00 | 79 | 1017.7 |
| 20260901131513 | 69 | 162 | 0.0 | 3.5 | 0.00 | 0.00 | 0.00 | 78 | 1017.8 |
| 20260901130007 | 67 | 279 | 0.9 | 4.3 | 0.00 | 0.00 | 0.00 | 80 | 1017.7 |
| 20260901124504 | 66 | 250 | 0.9 | 3.5 | 0.00 | 0.00 | 0.00 | 80 | 1017.7 |
| 20260901123002 | 66 | 243 | 0.0 | 2.6 | 0.00 | 0.00 | 0.00 | 83 | 1017.8 |
| 20260901121600 | 65 | 233 | 0.9 | 4.3 | 0.00 | 0.00 | 0.00 | 85 | 1017.8 |
| 20260901120104 | 64 | 253 | 0.9 | 3.5 | 0.00 | 0.00 | 0.00 | 84 | 1017.8 |
| 20260901114555 | 64 | 259 | 2.6 | 5.2 | 0.00 | 0.00 | 0.00 | 85 | 1017.5 |
| 20260901113111 | 63 | 230 | 1.7 | 4.3 | 0.00 | 0.00 | 0.00 | 86 | 1017.4 |
| 20260901111549 | 62 | 226 | 1.7 | 4.3 | 0.00 | 0.00 | 0.00 | 88 | 1017.5 |
| 20260901104545 | 60 | 260 | 0.9 | 2.6 | 0.00 | 0.00 | 0.00 | 91 | 1017.4 |
| 20260901103037 | 58 | 272 | 0.9 | 1.7 | 0.00 | 0.00 | 0.00 | 92 | 1017.5 |
| 20260901101559 | 54 | 15 | 0.0 | 0.0 | 0.00 | 0.00 | 0.00 | 93 | 1017.4 |
| 20260901100037 | 53 | 14 | 0.0 | 0.9 | 0.00 | 0.00 | 0.00 | 92 | 1017.4 |
| 20260901094535 | 53 | 13 | 0.0 | 0.9 | 0.00 | 0.00 | 0.00 | 93 | 1017.3 |
| 20260901093035 | 53 | 13 | 0.0 | 0.0 | 0.00 | 0.00 | 0.00 | 92 | 1017.2 |
| 20260901091533 | 54 | 13 | 0.0 | 0.0 | 0.00 | 0.00 | 0.00 | 92 | 1017.1 |
| 20260901090034 | 54 | 13 | 0.0 | 0.0 | 0.00 | 0.00 | 0.00 | 92 | 1017.0 |
| 20260901084539 | 55 | 13 | 0.0 | 0.9 | 0.00 | 0.02 | 0.00 | 91 | 1016.8 |
| 20260901083035 | 56 | 260 | 0.0 | 0.9 | 0.00 | 0.02 | 0.00 | 91 | 1016.7 |
| 20260901081528 | 57 | 263 | 0.0 | 2.6 | 0.00 | 0.02 | 0.00 | 91 | 1016.7 |
| 20260901080037 | 57 | 262 | 0.0 | 2.6 | 0.00 | 0.02 | 0.00 | 91 | 1016.8 |
| 20260901074528 | 57 | 288 | 0.0 | 1.7 | 0.00 | 0.02 | 0.00 | 91 | 1016.8 |
| 20260901073028 | 58 | 261 | 0.0 | 2.6 | 0.00 | 0.02 | 0.00 | 91 | 1016.8 |
| 20260901071526 | 58 | 261 | 0.0 | 1.7 | 0.00 | 0.02 | 0.00 | 91 | 1017.0 |
| 20260901070023 | 58 | 269 | 0.9 | 2.6 | 0.00 | 0.02 | 0.00 | 92 | 1016.8 |
| 20260901064526 | 58 | 333 | 0.0 | 1.7 | 0.00 | 0.03 | 0.00 | 91 | 1016.9 |
| 20260901063020 | 58 | 302 | 0.0 | 1.7 | 0.00 | 0.03 | 0.00 | 91 | 1016.8 |
| 20260901061519 | 58 | 324 | 0.0 | 0.9 | 0.00 | 0.03 | 0.00 | 91 | 1016.8 |
| 20260901060018 | 57 | 248 | 0.0 | 1.7 | 0.00 | 0.03 | 0.00 | 92 | 1016.9 |
| 20260901054515 | 56 | 279 | 0.0 | 0.9 | 0.00 | 0.05 | 0.00 | 92 | 1016.9 |
| 20260901053018 | 56 | 278 | 0.0 | 0.9 | 0.00 | 0.05 | 0.00 | 92 | 1016.7 |
| 20260901051513 | 53 | 23 | 0.0 | 0.0 | 0.00 | 0.05 | 0.00 | 92 | 1016.8 |
| 20260901050011 | 53 | 23 | 0.0 | 0.9 | 0.00 | 0.05 | 0.00 | 91 | 1016.8 |
| 20260901044514 | 55 | 262 | 0.0 | 0.0 | 0.00 | 0.06 | 0.00 | 91 | 1016.9 |
| 20260901043016 | 55 | 262 | 0.0 | 0.0 | 0.00 | 0.06 | 0.00 | 90 | 1017.0 |
| 20260901041508 | 55 | 265 | 0.0 | 1.7 | 0.00 | 0.06 | 0.00 | 91 | 1017.1 |
| 20260901040007 | 54 | 359 | 0.0 | 0.9 | 0.00 | 0.06 | 0.00 | 90 | 1017.1 |
| 20260901034505 | 56 | 359 | 0.0 | 0.9 | 0.00 | 0.08 | 0.00 | 90 | 1017.0 |
| 20260901033002 | 55 | 1 | 0.0 | 0.9 | 0.00 | 0.08 | 0.00 | 91 | 1016.9 |
| 20260901031600 | 53 | 22 | 0.0 | 0.9 | 0.00 | 0.08 | 0.00 | 90 | 1016.8 |
| 20260901030056 | 54 | 280 | 0.0 | 0.0 | 0.00 | 0.08 | 0.00 | 90 | 1016.7 |
| 20260901024557 | 54 | 281 | 0.0 | 0.0 | 0.00 | 0.08 | 0.08 | 88 | 1016.8 |
| 20260901023050 | 56 | 280 | 0.0 | 0.9 | 0.00 | 0.08 | 0.08 | 87 | 1016.8 |